Location: Arneštovice
(49.5322°N, 15.1200°E)
Time: 07:48:24
(UTC+00:00)

Daily predictions for brighter satellites

Satellite Brightness Start Highest point End
(mag) Time Altitude Azimuth Time Altitude Azimuth Time Altitude Azimuth
DELTA 2 DEB (DPAF) 4.3 19:14:33 10° NNE 19:18:47 75° WNW 19:23:00 10° SSW
Cosmos-2242 3.0 19:14:51 10° S 19:19:03 85° E 19:23:18 10° N
Cosmos 1680 Rocket 4.1 19:14:19 10° SSE 19:19:05 36° ESE 19:23:53 10° NE
Spot 2 Rocket 4.5 19:14:56 10° SE 19:19:22 32° ENE 19:23:49 10° N
Kosmos-1783 1.7 19:27:18 10° SSW 19:28:41 39° SE 19:30:06 10° ENE
SL-16 R/B 2.6 19:27:24 10° S 19:32:39 41° ESE 19:37:56 10° NE
Cosmos 1933 3.2 19:29:00 10° S 19:32:56 79° E 19:36:55 10° NNE
Cosmos 1515 3.4 19:30:51 10° S 19:34:21 80° E 19:37:51 10° NNE
Meteor 2-16 Rocket 4.5 19:29:23 10° S 19:35:22 65° E 19:41:24 10° NNE
CZ-4C R/B 3.1 19:32:23 10° NNE 19:36:05 74° ESE 19:39:55 10° S
MetOp-B 4.2 19:31:48 10° SSE 19:37:10 84° ENE 19:42:34 10° NNW
Cosmos 2056 Rocket 3.8 19:32:29 10° NNW 19:37:53 63° ENE 19:43:10 10° SE
Lacrosse 5 2.0 19:33:53 10° WNW 19:38:59 70° SW 19:43:56 11° SE
MOS 1 Rocket 4.4 19:34:57 10° SE 19:39:31 36° ENE 19:44:18 10° N
Cosmos 1624 Rocket 4.2 19:35:05 10° NNW 19:40:15 63° ENE 19:45:19 10° SE
Ariane Rocket 3.5 19:36:51 10° SE 19:41:40 47° ENE 19:46:33 10° N
Meteor 1-5 Rocket 4.4 19:36:21 10° NNW 19:42:21 88° ENE 19:48:09 10° S
USA 276 1.1 19:40:17 10° W 19:42:28 84° N 19:44:44 10° E
IRS-1C Rocket 4.1 19:37:41 10° SSE 19:42:57 85° ENE 19:48:16 10° NNW
CZ-4 R/B 4.2 19:42:16 10° WSW 19:43:41 12° W 19:45:06 10° WNW
Cosmos 44 3.3 19:39:09 10° NW 19:44:06 75° NE 19:48:23 12° SE
Lacrosse 5 rocket 1.4 19:40:35 10° SW 19:44:50 63° SE 19:49:02 10° ENE
Cosmos 2369 Rocket 2.7 19:40:01 10° NNW 19:45:28 50° NE 19:50:37 11° SE
Cosmos 1812 Rocket 3.7 19:41:14 10° SSW 19:45:40 79° W 19:50:05 10° N
ATLAS 5 CENTAUR R/B 4.4 19:43:55 10° WNW 19:47:20 17° WSW 19:51:10 10° SSW
Cosmos 2221 2.7 19:46:48 10° S 19:50:59 52° E 19:55:13 10° NNE
Cosmos 2344 4.4 19:43:00 10° NW 19:51:20 69° SW 20:02:47 10° SSE
Cosmos 2084 3.2 19:50:50 10° NW 19:54:36 68° NE 19:57:45 14° SE
Resurs 01 Rocket 3.9 19:51:23 10° SW 19:54:52 22° W 19:58:23 10° NW
Cosmos 2237 Rocket 3.3 19:54:03 10° SW 19:59:34 49° NW 20:05:07 10° NNE
BREEZE-M DEB (TANK) 2.1 19:57:56 10° WSW 20:00:42 42° SSE 20:02:43 10° E
USA 308 4.3 19:59:22 10° WSW 20:00:57 14° SW 20:02:42 10° S
Cosmos 1378 3.1 19:58:19 10° SSW 20:01:35 69° W 20:04:52 10° N
ATLAS 3B R/B 3.2 19:54:56 10° NW 20:02:44 69° SW 20:09:47 13° SSE
BREEZE-M DEB (TANK) 4.0 20:00:21 10° SW 20:04:04 50° SSE 20:14:08 10° E
Cosmos 921 Rocket 3.5 20:01:25 10° S 20:05:38 44° ESE 20:09:56 10° NNE
Aureole 3 Rocket 2.9 20:02:48 10° N 20:06:23 86° W 20:10:56 11° S
GEOS 3 Rocket 3.7 20:01:49 10° NE 20:06:52 51° SE 20:11:50 10° SSW
Okean 3 Rocket 4.1 20:03:19 10° N 20:07:35 45° ENE 20:10:46 16° SE
SPOT 5 3.4 20:03:10 10° S 20:07:45 53° W 20:12:09 10° NNW
Cosmos 923 Rocket 4.3 20:02:56 10° SSW 20:08:14 73° WNW 20:13:37 10° NNE
USA 306 3.8 20:06:06 10° WNW 20:09:43 42° N 20:13:27 10° ENE
Landsat 4 3.6 20:08:44 14° S 20:11:42 78° WSW 20:15:13 10° NNW
ARGOS Delta rocket 4.0 20:09:57 11° S 20:15:00 80° WSW 20:19:56 10° NNW
Cosmos 1943 4.1 20:12:15 14° SSE 20:16:12 30° ESE 20:21:03 10° NE
Landsat 5 4.0 20:13:13 10° NNE 20:16:40 32° E 20:18:42 19° SSE
USA 234 4.3 20:10:34 10° ENE 20:16:46 47° N 20:22:58 10° WNW
Okean O Rocket 4.2 20:14:06 10° SW 20:16:53 16° W 20:19:41 10° NW
Terra 1.9 20:13:56 13° S 20:18:13 77° WSW 20:22:58 10° NNW
Cosmos 1656 Rocket 3.7 20:17:39 10° NNW 20:23:06 75° WSW 20:27:23 17° SSE
Cosmos 1371 Rocket 4.5 20:18:15 10° NNW 20:23:31 60° WSW 20:28:03 14° S
ERS-1 Rocket 3.4 20:18:56 11° S 20:23:46 61° W 20:28:46 10° NNW
Cosmos 494 Rocket 4.2 20:21:03 11° S 20:25:42 49° ESE 20:30:38 10° NNE
ATLAS 2AS CENTAUR R/B 3.7 20:20:17 10° WSW 20:27:26 52° NW 20:34:18 10° NE
Cosmos 1842 Rocket 3.8 20:24:38 17° SSE 20:27:56 55° E 20:32:17 10° NNE
SPOT 3 Rocket 3.6 20:24:07 15° SSE 20:28:25 81° WSW 20:33:36 10° NNW
Meteor 1-14 Rocket 4.3 20:22:40 10° NNW 20:28:31 90° ESE 20:33:21 16° S
Lacrosse 4 Rocket 4.1 20:28:31 10° NNE 20:29:32 11° NNE 20:30:33 10° NE
USA 59 Rocket 1.9 20:28:50 10° NNW 20:31:33 20° NNE 20:34:46 10° E
Meteor 1-11 Rocket 4.1 20:26:23 10° N 20:31:53 53° ENE 20:35:44 20° SE
USA 281 3.3 20:27:32 17° SSE 20:32:53 85° WSW 20:39:32 10° NNW
Cosmos 1943 Rocket 4.3 20:30:50 10° WNW 20:34:39 19° W 20:38:26 10° SW
Cosmos 1743 3.3 20:35:18 10° NNW 20:38:48 48° W 20:41:25 16° SSW
Cosmos 1331 Rocket 4.3 20:34:32 10° NNW 20:39:45 58° ENE 20:43:05 21° SE
ARIANE 5 R/B 3.9 20:38:37 17° ESE 20:41:02 29° ENE 20:44:46 10° N
ISS -3.7 20:38:14 10° WNW 20:41:35 76° NNE 20:43:45 20° E
Cosmos 1110 Rocket 4.2 20:36:18 10° NNW 20:41:37 64° ENE 20:45:00 22° SE
Cosmos 1340 Rocket 4.3 20:42:11 20° ESE 20:43:13 22° E 20:46:18 10° NE
USA 245 4.5 20:42:39 12° SW 20:43:56 17° W 20:45:31 10° NW
Cosmos 2279 Rocket 4.0 20:40:05 10° N 20:46:20 89° E 20:50:54 19° S
Cosmos 1634 Rocket 4.4 20:41:00 10° NNW 20:47:13 64° W 20:52:38 14° S
Cosmos 2297 4.3 20:41:46 10° NW 20:47:18 50° WSW 20:51:24 18° S
USA 229 DEB 4.1 20:48:54 10° NW 20:56:16 71° SW 21:01:46 22° SSE
USA 229 4.1 20:49:00 10° NW 20:56:22 72° SW 21:01:53 22° SSE
Cosmos 1726 1.8 20:54:17 10° NNW 20:57:25 67° W 20:58:35 34° S
Spot 2 Rocket 4.5 20:54:06 13° SSW 20:58:13 40° W 21:02:58 10° NNW
Cosmos 1805 4.4 21:01:12 10° N 21:04:27 28° ENE 21:05:37 23° ESE
Cosmos 1743 Rocket 3.7 21:04:35 10° N 21:08:57 64° ENE 21:10:51 32° SSE
MetOp-A 4.2 21:11:24 24° SSW 21:13:52 53° W 21:18:31 10° NNW
Sich 1 3.0 21:09:36 10° N 21:13:59 77° ENE 21:15:51 34° SSE
USA 276 3.8 21:14:34 10° W 21:15:14 16° WSW 21:15:14 16° WSW
SL-16 R/B 3.5 21:11:26 10° WSW 21:16:46 41° NW 21:22:09 10° NNE
Cosmos 1603 3.8 21:15:41 25° S 21:18:56 57° ESE 21:24:31 10° NE
NOSS 2-1 (C) 4.5 21:16:03 10° NNW 21:19:27 38° NE 21:22:33 17° ESE
Cosmos 1536 3.2 21:16:48 10° NNW 21:20:35 52° W 21:22:15 29° SSW
Cosmos 1975 3.8 21:17:08 10° N 21:20:46 34° ENE 21:21:58 28° ESE
Lacrosse 5 3.8 21:18:07 10° W 21:21:11 16° WSW 21:23:08 13° SSW
USA 267 4.0 21:16:13 10° ENE 21:21:47 29° SE 21:23:23 26° SSE
Lacrosse 5 rocket 2.8 21:19:22 10° W 21:23:25 40° NNW 21:27:22 10° NE
Cosmos 1408 Rocket 4.1 21:19:37 10° NNW 21:23:59 54° W 21:26:12 27° SSW
Cosmos 1452 Rocket 3.8 21:18:59 10° NNW 21:24:09 60° WSW 21:26:45 28° S
Meteor 1-27 Rocket 3.6 21:22:18 26° S 21:25:30 79° E 21:31:03 10° NNE
Cosmos 468 4.4 21:22:16 22° SSW 21:25:42 82° ESE 21:30:57 10° NNE
Okean 1 3.3 21:25:59 32° SSW 21:27:40 73° WNW 21:31:32 10° N
Cosmos 1340 2.3 21:24:45 10° N 21:28:11 77° E 21:28:49 54° SSE
Cosmos 2369 Rocket 3.4 21:24:23 10° NW 21:29:16 31° WSW 21:32:23 18° SSW
Cosmos 2026 Rocket 4.5 21:27:52 27° SSE 21:30:53 47° E 21:36:51 10° NNE
PSLV R/B 4.1 21:27:25 10° NNE 21:31:25 53° E 21:32:26 41° SSE
Cosmos 1626 3.6 21:31:50 19° E 21:31:50 19° E 21:34:01 10° NE
USA 306 2.6 21:39:54 10° WNW 21:43:47 84° NNE 21:45:08 39° ESE
SL-8 R/B 3.6 21:51:43 10° WSW 21:56:23 59° SSE 22:01:06 10° E
Terra 4.4 21:55:48 10° W 21:56:37 10° W 21:57:27 10° WNW
Cosmos 1328 Rocket 3.9 21:56:13 41° SE 21:57:10 48° E 22:01:21 10° NNE
USA 234 3.5 21:52:49 10° ESE 21:59:19 69° NNE 22:05:49 10° WNW
Cosmos 1733 4.1 21:56:11 10° NNW 21:59:24 33° W 22:00:07 30° WSW
Cosmos 1943 3.9 21:54:24 10° SW 21:59:58 54° NW 22:05:32 10° NNE
Spot 4 3.8 21:58:25 40° SSE 22:00:07 79° ENE 22:04:54 10° NNW
ALOS 2 2.9 21:58:50 38° SE 22:00:15 56° ENE 22:04:34 10° N
Meteor 2-4 Rocket 3.8 22:00:28 34° S 22:03:05 74° E 22:09:02 10° NNE
Cosmos 1470 Rocket 4.2 21:59:02 10° N 22:03:22 47° ENE 22:04:42 35° ESE
H-2A R/B 2.5 22:02:30 48° S 22:03:32 70° WSW 22:07:44 10° NNW
IRIDIUM 104 4.4 22:00:50 10° N 22:06:03 70° W 22:08:14 35° SSW
Lacrosse 4 Rocket 2.2 22:04:58 10° NNW 22:08:52 43° NE 22:10:34 27° ESE
Cosmos 1151 Rocket 3.5 22:08:37 32° SW 22:10:22 55° WNW 22:14:40 10° N
Cosmos 1666 Rocket 3.5 22:08:58 10° NNW 22:13:18 76° W 22:14:23 49° S
Cosmos 1092 Rocket 4.0 22:10:25 32° S 22:13:31 90° WSW 22:19:52 10° N
Cosmos 1302 Rocket 4.4 22:10:28 10° NNW 22:15:31 52° WSW 22:17:13 36° SSW
SAR-Lupe-3 4.5 22:15:44 62° SW 22:16:02 66° WSW 22:19:33 10° NNW
Cosmos 1656 3.7 22:11:05 10° NNW 22:16:32 71° ENE 22:19:03 33° SE
Cosmos 1633 Rocket 3.0 22:12:34 10° N 22:17:01 84° W 22:18:08 50° S
ARIANE 5 R/B 3.6 22:16:04 29° SW 22:17:20 35° W 22:21:21 10° NNW
ISS -1.9 22:15:03 10° W 22:16:32 21° W 22:16:32 21° W
Cosmos 1340 Rocket 4.0 22:17:22 25° WSW 22:19:04 37° WNW 22:22:48 10° N
USA 59 Rocket 0.0 22:17:38 10° NW 22:21:30 81° SW 22:22:59 44° SSE
NOSS 2-1 (E) 3.5 22:18:30 10° NW 22:22:22 80° SW 22:23:50 44° SSE
Cosmos 1842 4.3 22:22:35 29° E 22:22:43 30° E 22:25:59 10° NNE
Cosmos 1066 Rocket 4.4 22:21:45 37° SSE 22:23:58 63° E 22:29:46 10° NNE
Cosmos 1992 Rocket 3.9 22:18:44 10° NNW 22:23:59 84° WSW 22:25:48 42° SSE
H-2A R/B 3.0 22:21:07 10° NNE 22:25:10 34° E 22:25:53 32° ESE
Cosmos 1697 Rocket 3.7 22:21:56 10° NNW 22:27:17 41° NE 22:31:17 17° ESE
Cosmos 1933 Rocket 4.2 22:24:37 10° N 22:28:48 44° ENE 22:30:02 35° ESE
Cosmos 614 Rocket 3.9 22:27:44 38° SSW 22:29:49 88° WNW 22:35:05 10° NNE
Cosmos 1766 2.9 22:26:43 10° N 22:30:28 86° E 22:30:52 70° SSE
Cosmos 1980 Rocket 4.0 22:27:43 10° NNW 22:32:32 27° NE 22:37:20 10° E
NOSS 2-1 (D) 3.6 22:30:10 10° NW 22:33:59 62° SW 22:34:55 49° S
Cosmos 1470 3.3 22:30:47 10° N 22:34:22 44° ENE 22:34:54 41° ESE
Cosmos 1707 3.8 22:34:21 30° E 22:34:29 30° E 22:37:43 10° NNE
Meteor 2-12 Rocket 4.5 22:35:06 37° S 22:37:37 72° E 22:43:46 10° NNE
KORONAS-FOTON 4.2 22:43:13 45° ESE 22:43:22 45° E 22:46:53 10° NNE
Cosmos 2360 4.2 22:47:42 10° NNW 22:53:27 81° ENE 22:56:07 33° SE
Cosmos 1975 4.4 22:53:23 10° NW 22:56:28 22° W 22:57:09 21° WSW
Cosmos 1417 Rocket 4.5 22:53:49 10° N 23:00:13 87° E 23:03:02 36° S
NOSS 3-3 (A) 3.8 22:59:40 40° S 23:01:39 64° SE 23:07:59 10° NE
Lacrosse 5 rocket 3.4 22:58:50 10° WNW 23:02:32 29° N 23:06:09 10° ENE
Cosmos 1626 3.4 23:04:41 25° W 23:05:02 26° WNW 23:07:49 10° NNW
USA 267 3.2 22:58:50 10° ENE 23:05:24 83° SE 23:10:42 17° SW
Cosmos 1269 Rocket 4.0 23:04:35 39° SSW 23:06:35 82° WNW 23:11:54 10° NNE
Cosmos 1140 Rocket 4.0 23:05:26 37° SSE 23:06:52 47° ESE 23:11:52 10° NNE
Cosmos 1674 2.4 23:07:50 69° W 23:07:58 71° WNW 23:11:28 10° N
NOSS 2-1 (C) 4.5 23:05:32 10° WNW 23:09:07 34° WSW 23:09:07 34° WSW
Cosmos 2082 Rocket 3.9 23:08:47 16° SE 23:10:42 19° E 23:14:37 10° NE
PSLV R/B 3.8 23:08:04 10° N 23:12:40 71° WNW 23:13:59 45° SW
NOSS 3-4 (A) 4.1 23:10:03 10° NW 23:16:42 65° NE 23:24:24 10° SE
NOSS 3-4 (C) 4.2 23:10:06 10° NW 23:16:45 65° NE 23:24:27 10° SE
Cosmos 1300 4.1 23:15:21 10° N 23:18:30 28° ENE 23:19:33 24° ESE
Meteor 2-10 Rocket 4.4 23:13:15 10° N 23:18:57 52° ENE 23:22:17 24° SE
Cosmos 1833 Rocket 2.7 23:17:09 40° S 23:19:07 66° ESE 23:24:42 10° NNE
Cosmos 407 Rocket 4.2 23:18:38 33° SE 23:20:14 42° ESE 23:25:11 10° NE
Cosmos 44 Rocket 3.5 23:18:14 10° NW 23:23:14 71° NE 23:26:07 24° SE
ATLAS CENTAUR R/B 4.5 23:09:56 10° WNW 23:24:20 85° SW 23:34:08 10° SE
Cosmos 2315 Rocket 4.0 23:18:09 10° N 23:24:27 78° E 23:27:37 32° SSE
S3M 4.0 23:19:13 10° NNW 23:25:35 75° W 23:28:28 35° S
NOSS 3-3 (C) 3.7 23:26:06 34° SW 23:28:44 87° SE 23:35:17 10° NE
Cosmos 2285 Rocket 4.1 23:29:13 35° S 23:31:56 68° ESE 23:38:15 10° NNE
Cosmos 1515 Rocket 4.4 23:31:37 31° WSW 23:32:54 39° WNW 23:36:59 10° N
GP-B 3.0 23:30:21 10° N 23:34:46 80° W 23:35:54 49° SSW
Cosmos 1400 Rocket 3.6 23:34:57 34° SE 23:35:49 40° E 23:39:35 10° NNE
ALOS 2 4.4 23:36:13 17° WSW 23:36:56 18° W 23:39:58 10° NW
Cosmos 1763 Rocket 4.0 23:32:29 10° NNW 23:37:45 57° ENE 23:41:20 20° SE
SL-8 R/B 3.5 23:33:56 10° W 23:38:42 80° S 23:43:30 10° E
Cosmos 1869 Rocket 3.7 23:37:46 10° NNW 23:42:02 57° W 23:42:58 46° SW
CZ-2D R/B 4.3 23:38:44 10° NE 23:42:06 16° E 23:45:26 10° SE
USA 234 3.4 23:38:50 26° SSE 23:42:29 53° SW 23:48:53 10° WNW
Meteor 1-13 Rocket 4.4 23:41:22 35° SSW 23:44:00 77° WNW 23:49:57 10° N
Cosmos 1733 Rocket 3.4 23:41:00 10° N 23:45:16 60° ENE 23:46:57 34° SE
Lacrosse 4 Rocket 2.7 23:43:37 10° WNW 23:46:28 24° W 23:46:28 24° W
Meteor 1-23 Rocket 4.2 23:47:12 35° S 23:49:36 75° E 23:55:13 10° NNE
Aureole 3 3.9 23:50:45 31° ESE 23:50:55 31° E 23:53:36 10° NNE
Okean 3 4.5 23:50:23 27° SE 23:51:46 35° E 23:55:31 10° NNE
Cosmos 1346 Rocket 3.7 23:50:28 10° N 23:54:11 43° ENE 23:55:55 26° SE
Cosmos 1356 Rocket 4.3 23:54:26 30° SE 23:55:41 38° E 23:59:30 10° NNE
APEX 4.2 23:57:03 21° NNW 23:57:03 21° NNW 23:58:18 10° N
